When you browse on this site, cookies collect data to enhance your experience and personalize the content and advertising you see.
Visit our Privacy Policy to learn more. By continuing to use the site, you agree to this use of cookies and data.
  • în România
  • Lista ţărilor
  • Pe 7 zile
  • Temperatura apei
  • Hartă satelitară
  • Meteo pe hartă
  • Widget-uri
  • user-avatar
    Intrare

    Meteo pe oră la Sharkovo

    Astăzi, 21 Martie, Joi

    Timp Temperatura Precipitaţii Vânt Presiune Umiditate
    00:00 -1°C° 0.2 mm 3 m/s 749 mmHg 83%
    01:00 -1°C° 0.2 mm 3 m/s 749 mmHg 84%
    02:00 -1°C° 0 mm 3 m/s 748 mmHg 90%
    03:00 -1°C° 0.6 mm 3 m/s 748 mmHg 90%
    04:00 0°C° 0.6 mm 3 m/s 747 mmHg 91%
    05:00 0°C° 0.6 mm 3 m/s 747 mmHg 91%
    06:00 0°C° 0 mm 3 m/s 748 mmHg 90%
    07:00 +1°C° 0 mm 3 m/s 748 mmHg 88%
    08:00 0°C° 0 mm 4 m/s 748 mmHg 86%
    09:00 +1°C° 0 mm 4 m/s 748 mmHg 84%
    10:00 +1°C° 0 mm 4 m/s 749 mmHg 81%
    11:00 +3°C° 0 mm 4 m/s 749 mmHg 79%
    12:00 +4°C° 0 mm 4 m/s 749 mmHg 75%
    13:00 +5°C° 0 mm 4 m/s 749 mmHg 70%
    14:00 +6°C° 0 mm 4 m/s 749 mmHg 66%
    15:00 +5°C° 0 mm 3 m/s 749 mmHg 69%
    16:00 +5°C° 0 mm 3 m/s 749 mmHg 72%
    17:00 +6°C° 0 mm 2 m/s 749 mmHg 75%
    18:00 +4°C° 0 mm 2 m/s 748 mmHg 79%
    19:00 +3°C° 0 mm 2 m/s 748 mmHg 83%
    20:00 +2°C° 0 mm 2 m/s 748 mmHg 88%
    21:00 +2°C° 0 mm 2 m/s 748 mmHg 88%
    22:00 +3°C° 0 mm 2 m/s 747 mmHg 88%
    23:00 +3°C° 0 mm 2 m/s 747 mmHg 88%

    Mâine, 22 Martie, Vineri

    Timp Temperatura Precipitaţii Vânt Presiune Umiditate
    00:00 +2°C° 0.2 mm 3 m/s 746 mmHg 89%
    01:00 +2°C° 0.2 mm 3 m/s 745 mmHg 90%
    02:00 +3°C° 0.2 mm 4 m/s 744 mmHg 91%
    03:00 +3°C° 0.7 mm 4 m/s 744 mmHg 92%
    04:00 +3°C° 0.7 mm 4 m/s 743 mmHg 92%
    05:00 +4°C° 0.7 mm 4 m/s 742 mmHg 93%
    06:00 +2°C° 0.5 mm 5 m/s 742 mmHg 88%
    07:00 +2°C° 0.5 mm 6 m/s 742 mmHg 83%
    08:00 0°C° 0.5 mm 7 m/s 742 mmHg 78%
    09:00 0°C° 0.1 mm 7 m/s 743 mmHg 72%
    10:00 0°C° 0.1 mm 7 m/s 744 mmHg 66%
    11:00 0°C° 0.1 mm 8 m/s 745 mmHg 60%
    12:00 -1°C° 0.1 mm 7 m/s 746 mmHg 62%
    13:00 -1°C° 0.1 mm 7 m/s 746 mmHg 65%
    14:00 -1°C° 0.1 mm 7 m/s 747 mmHg 67%
    15:00 -1°C° 0.1 mm 7 m/s 747 mmHg 69%
    16:00 -2°C° 0.1 mm 7 m/s 747 mmHg 71%
    17:00 -2°C° 0.1 mm 7 m/s 747 mmHg 73%
    18:00 -2°C° 0.1 mm 7 m/s 748 mmHg 74%
    19:00 -2°C° 0.1 mm 6 m/s 748 mmHg 75%
    20:00 -2°C° 0.1 mm 6 m/s 749 mmHg 76%
    21:00 -2°C° 0 mm 6 m/s 749 mmHg 77%
    22:00 -2°C° 0 mm 6 m/s 750 mmHg 78%
    23:00 -2°C° 0 mm 6 m/s 750 mmHg 80%

    Poimâine, 23 Martie, Sâmbătă

    Timp Temperatura Precipitaţii Vânt Presiune Umiditate
    00:00 -1°C° 0 mm 5 m/s 750 mmHg 81%
    01:00 -1°C° 0 mm 5 m/s 751 mmHg 82%
    02:00 -2°C° 0 mm 5 m/s 751 mmHg 83%
    03:00 -2°C° 0 mm 4 m/s 751 mmHg 85%
    04:00 -2°C° 0 mm 4 m/s 752 mmHg 87%
    05:00 -2°C° 0 mm 3 m/s 752 mmHg 88%
    06:00 -2°C° 0 mm 3 m/s 752 mmHg 87%
    07:00 -1°C° 0 mm 3 m/s 753 mmHg 86%
    08:00 -1°C° 0 mm 3 m/s 753 mmHg 84%
    09:00 +1°C° 0 mm 2 m/s 753 mmHg 81%
    10:00 +3°C° 0 mm 1 m/s 753 mmHg 78%
    11:00 +3°C° 0 mm 1 m/s 753 mmHg 74%
    12:00 +4°C° 0 mm 1 m/s 752 mmHg 72%
    13:00 +5°C° 0 mm 1 m/s 752 mmHg 69%
    14:00 +6°C° 0 mm 1 m/s 752 mmHg 66%
    15:00 +5°C° 0 mm 1 m/s 751 mmHg 68%
    16:00 +5°C° 0 mm 1 m/s 751 mmHg 70%
    17:00 +4°C° 0 mm 2 m/s 750 mmHg 72%
    18:00 +3°C° 0 mm 2 m/s 750 mmHg 76%
    19:00 +2°C° 0 mm 2 m/s 749 mmHg 79%
    20:00 0°C° 0 mm 3 m/s 749 mmHg 82%
    21:00 +1°C° 0.1 mm 3 m/s 748 mmHg 79%
    22:00 +1°C° 0.1 mm 3 m/s 747 mmHg 77%
    23:00 +1°C° 0.1 mm 3 m/s 747 mmHg 74%

    24 Martie, Duminică

    Timp Temperatura Precipitaţii Vânt Presiune Umiditate
    00:00 +1°C° 1.1 mm 3 m/s 746 mmHg 76%
    01:00 +1°C° 1.1 mm 3 m/s 746 mmHg 78%
    02:00 +1°C° 1.1 mm 3 m/s 745 mmHg 81%
    03:00 +1°C° 0.1 mm 3 m/s 745 mmHg 84%
    04:00 +1°C° 0.1 mm 3 m/s 745 mmHg 88%
    05:00 +1°C° 0.1 mm 3 m/s 745 mmHg 92%
    06:00 +1°C° 0 mm 3 m/s 745 mmHg 91%
    07:00 +2°C° 0 mm 3 m/s 745 mmHg 89%
    08:00 +1°C° 0 mm 4 m/s 745 mmHg 88%
    09:00 +1°C° 0 mm 4 m/s 745 mmHg 80%
    10:00 +3°C° 0 mm 4 m/s 745 mmHg 71%
    11:00 +3°C° 0 mm 5 m/s 745 mmHg 63%
    12:00 +3°C° 0 mm 5 m/s 745 mmHg 60%
    13:00 +3°C° 0 mm 5 m/s 745 mmHg 56%
    14:00 +3°C° 0 mm 5 m/s 745 mmHg 53%
    15:00 +3°C° 0.1 mm 5 m/s 745 mmHg 55%
    16:00 +3°C° 0.1 mm 4 m/s 745 mmHg 58%
    17:00 +2°C° 0.1 mm 3 m/s 745 mmHg 60%
    18:00 +1°C° 0 mm 3 m/s 745 mmHg 65%
    19:00 +1°C° 0 mm 2 m/s 745 mmHg 70%
    20:00 -1°C° 0 mm 2 m/s 745 mmHg 75%
    21:00 -2°C° 0 mm 2 m/s 745 mmHg 76%
    22:00 -2°C° 0 mm 2 m/s 745 mmHg 77%
    23:00 -3°C° 0 mm 2 m/s 745 mmHg 78%

    25 Martie, Luni

    Timp Temperatura Precipitaţii Vânt Presiune Umiditate
    00:00 -3°C° 0 mm 2 m/s 745 mmHg 79%
    01:00 -3°C° 0 mm 2 m/s 745 mmHg 79%
    02:00 -3°C° 0 mm 2 m/s 745 mmHg 80%
    03:00 -3°C° 0 mm 2 m/s 745 mmHg 81%
    04:00 -4°C° 0 mm 2 m/s 745 mmHg 83%
    05:00 -4°C° 0 mm 2 m/s 744 mmHg 84%
    06:00 -3°C° 0 mm 2 m/s 744 mmHg 80%
    07:00 -2°C° 0 mm 2 m/s 744 mmHg 76%
    08:00 -1°C° 0 mm 2 m/s 744 mmHg 71%
    09:00 +1°C° 0 mm 2 m/s 744 mmHg 67%
    10:00 +3°C° 0 mm 2 m/s 743 mmHg 62%
    11:00 +3°C° 0 mm 3 m/s 743 mmHg 58%
    12:00 +3°C° 0.1 mm 3 m/s 742 mmHg 57%
    13:00 +4°C° 0.1 mm 3 m/s 742 mmHg 56%
    14:00 +4°C° 0.1 mm 3 m/s 741 mmHg 55%
    15:00 +4°C° 0.1 mm 3 m/s 741 mmHg 58%
    16:00 +4°C° 0.1 mm 2 m/s 740 mmHg 60%
    17:00 +5°C° 0.1 mm 1 m/s 740 mmHg 62%
    18:00 +2°C° 0 mm 2 m/s 740 mmHg 68%
    19:00 +1°C° 0 mm 2 m/s 739 mmHg 73%
    20:00 -1°C° 0 mm 2 m/s 739 mmHg 78%
    21:00 -1°C° 0 mm 2 m/s 739 mmHg 80%
    22:00 -1°C° 0 mm 2 m/s 738 mmHg 81%
    23:00 0°C° 0 mm 1 m/s 738 mmHg 83%

    26 Martie, Marţi

    Timp Temperatura Precipitaţii Vânt Presiune Umiditate
    00:00 -1°C° 0.5 mm 2 m/s 738 mmHg 85%
    01:00 -1°C° 0.5 mm 2 m/s 738 mmHg 88%
    02:00 -1°C° 0.5 mm 2 m/s 738 mmHg 91%
    03:00 -1°C° 0.5 mm 2 m/s 738 mmHg 93%
    04:00 -1°C° 0.5 mm 2 m/s 738 mmHg 94%
    05:00 -1°C° 0.5 mm 2 m/s 738 mmHg 95%
    06:00 -1°C° 0.3 mm 2 m/s 738 mmHg 94%
    07:00 -1°C° 0.3 mm 2 m/s 738 mmHg 92%
    08:00 0°C° 0.3 mm 3 m/s 739 mmHg 91%
    09:00 0°C° 0.2 mm 3 m/s 739 mmHg 89%
    10:00 0°C° 0.2 mm 4 m/s 739 mmHg 86%
    11:00 0°C° 0.2 mm 4 m/s 740 mmHg 84%
    12:00 0°C° 0.2 mm 4 m/s 740 mmHg 83%
    13:00 +1°C° 0.2 mm 4 m/s 740 mmHg 82%
    14:00 +1°C° 0.2 mm 4 m/s 740 mmHg 81%
    15:00 +1°C° 0.1 mm 4 m/s 741 mmHg 82%
    16:00 0°C° 0.1 mm 4 m/s 741 mmHg 82%
    17:00 0°C° 0.1 mm 4 m/s 742 mmHg 82%
    18:00 0°C° 0 mm 4 m/s 742 mmHg 84%
    19:00 -1°C° 0 mm 4 m/s 743 mmHg 85%
    20:00 -1°C° 0 mm 4 m/s 744 mmHg 86%
    21:00 -2°C° 0 mm 4 m/s 744 mmHg 87%
    22:00 -2°C° 0 mm 4 m/s 744 mmHg 89%
    23:00 -2°C° 0 mm 4 m/s 745 mmHg 90%
    Arată mai mult